Torna al catalogo

ONEWEB-0130

AttivoComunicazioniPO
NORAD 47276·PAYLOAD·🇬🇧 United Kingdom

Lanciato Dec 18, 2020 da Vostochny Cosmodrome

Loading…

Prossimi Passaggi (prossime 24 ore)

TLE

AggiornatoSource: CelesTrak SupGP

Epoca: Sep 14, 2026, 17:07 UTC

1 47276C 20100U   26257.71368056  .00000210  00000+0  58390-3 0  2574
2 47276  87.8982 332.8832 0001889 100.1257   0.9664 13.12439778    12

Traccia ONEWEB-0130 in tempo reale con AllMySat

Download on the App Store